EHI
13 13 12 10 9 9 8 5 3 1 1 3 4 3 2 2 1 0 1 1 1 0 0 0 0 0 0 0 0 0 0 0 0 0 0 0 0 0
12 12 13 12 10 9 7 5 4 2 1 2 3 2 1 1 0 1 1 1 1 0 0 0 0 0 0 0 0 0 0 0 0 0 0 0 0 0
11 11 11 11 9 8 7 5 4 2 1 1 2 2 2 1 1 1 1 1 1 1 0 0 0 0 0 0 0 0 0 0 0 0 0 0 0 0
8 8 9 8 7 6 6 5 4 2 1 2 2 2 3 4 3 1 1 1 2 1 0 0 0 0 0 0 0 0 0 0 0 0 0 0 0 0
6 6 7 7 6 5 5 5 5 3 3 4 3 2 4 7 6 3 2 3 2 1 0 0 0 0 0 0 0 0 0 0 0 0 0 0 0 0
5 6 6 6 6 5 5 6 8 7 6 7 5 5 6 8 7 5 4 5 3 1 0 0 0 0 0 0 0 0 0 0 0 0 0 0 0 0
6 6 5 4 4 4 4 5 7 8 8 8 8 7 8 9 8 7 5 5 4 2 1 0 0 1 1 1 0 0 0 0 0 0 0 0 0 0
6 6 4 2 1 1 2 2 3 5 7 9 9 10 10 9 9 7 5 4 4 3 2 1 1 1 2 1 0 0 0 0 0 0 0 0 0 0
7 7 5 2 1 1 0 0 0 1 4 7 9 9 8 9 9 7 5 5 4 4 3 3 2 2 2 1 0 0 0 0 0 0 0 0 0 0
6 6 6 3 1 0 0 0 0 1 2 5 6 6 5 6 8 6 5 4 4 4 4 5 4 3 2 2 1 0 0 0 0 0 0 0 0 0
4 4 4 3 1 0 1 1 1 1 2 4 4 2 2 3 4 4 3 2 2 3 4 5 5 4 3 3 2 1 0 0 0 0 0 0 0 0
3 3 2 1 0 0 1 2 2 1 2 3 4 3 2 3 3 4 4 2 1 2 4 6 5 4 3 3 3 2 1 1 0 0 0 0 0 0
4 3 2 1 0 0 1 2 2 2 2 3 4 5 4 5 6 6 6 5 3 3 5 6 5 4 3 3 3 2 2 1 1 1 1 0 0 0
5 4 2 1 0 0 0 1 1 1 2 3 4 5 5 6 7 8 7 7 5 4 4 5 4 3 3 3 3 1 1 2 3 3 2 1 1 0
4 3 2 1 0 0 0 0 0 0 2 4 5 6 5 6 7 7 7 6 5 3 2 3 2 2 2 2 2 1 1 3 5 4 3 3 2 1
3 2 1 0 0 0 0 0 1 1 2 4 5 6 6 5 6 6 6 5 4 3 3 3 3 2 2 2 1 1 2 4 6 5 4 3 3 3
2 1 0 0 0 0 0 1 2 3 3 3 4 4 4 4 4 5 4 3 3 3 3 4 4 3 2 2 2 3 4 5 6 6 5 4 3 3
1 1 0 0 0 0 0 1 2 3 3 2 2 2 2 2 3 4 3 2 1 1 2 4 4 3 2 2 2 3 4 6 6 5 4 3 2 2
0 0 0 0 1 1 1 1 2 2 1 1 1 0 0 1 3 3 2 1 0 0 1 2 2 1 1 1 0 1 2 4 4 3 1 1 1 1
0 0 0 0 1 2 2 2 3 2 1 0 0 0 1 1 3 2 1 0 0 0 0 1 1 0 0 0 0 0 0 1 2 1 1 0 0 0
0 0 1 1 2 3 3 3 2 2 1 0 0 1 2 2 2 2 1 0 0 0 0 0 0 0 1 0 0 0 0 0 0 1 1 0 0 0
0 1 2 2 3 4 3 1 1 1 0 0 0 2 3 3 1 1 0 0 0 0 0 0 0 0 0 0 0 0 0 0 0 1 1 0 0 0
0 1 2 3 4 4 3 1 0 0 0 0 0 1 3 2 1 0 0 0 0 0 0 0 0 0 0 0 0 0 0 0 0 0 0 0 0 0
Wind_Speed
1 1 2 1 1 1 1 2 2 2 2 3 2 3 2 2 3 3 3 6 6 5 5 4 4 4 3 3 4 4 4 5 5 5 5 5 5 5
1 1 2 2 1 2 2 2 2 3 2 1 2 2 2 2 4 4 3 8 7 6 6 5 4 4 4 4 4 4 4 5 6 6 6 5 5 5
2 2 2 2 1 2 2 2 2 3 3 2 1 2 2 3 2 3 4 4 5 8 7 6 5 4 4 4 4 4 4 5 5 6 6 6 5 6
2 2 2 2 2 2 2 3 2 2 3 3 2 2 3 3 3 4 3 4 3 7 8 7 6 5 5 5 4 4 4 4 5 5 6 6 6 6
3 3 3 3 3 2 3 3 3 3 3 4 3 2 3 3 3 3 3 3 4 5 9 9 7 7 6 6 5 5 5 5 5 5 6 6 6 6
3 3 3 3 3 3 3 3 3 3 3 4 4 3 3 3 3 3 3 3 3 3 4 5 7 9 8 7 7 6 5 5 5 5 5 5 5 5
3 4 3 2 2 3 3 3 3 3 4 4 4 4 3 3 4 3 3 3 3 3 3 4 5 5 7 8 9 7 6 6 5 5 5 5 5 6
4 4 4 4 4 4 4 4 4 5 5 5 5 5 4 4 3 3 3 3 3 2 3 3 3 4 4 5 6 8 7 6 6 6 6 6 6 6
4 4 3 2 3 3 4 6 6 7 7 7 7 6 5 4 4 5 4 4 4 3 4 4 4 4 4 3 8 9 8 7 7 7 7 7 6 6
3 3 3 3 2 2 4 5 5 5 7 7 7 7 6 4 4 5 5 5 5 5 5 5 4 4 3 3 8 9 8 7 7 7 7 7 7 6
3 3 4 3 0 2 4 5 5 5 4 4 4 4 3 3 4 5 5 5 5 4 4 5 4 3 4 4 5 9 9 8 8 8 8 7 7 7
3 3 2 2 1 2 5 5 6 5 4 3 4 5 6 7 8 8 6 6 5 4 3 4 4 4 4 3 3 4 6 8 9 9 8 8 7 6
2 2 1 3 2 3 5 6 5 5 5 5 4 4 5 5 6 7 6 6 6 5 2 3 4 4 4 3 3 3 3 3 5 6 8 9 8 7
3 3 1 2 2 4 4 4 4 5 5 4 4 4 3 4 3 4 5 6 5 6 5 5 4 4 4 4 4 3 3 3 3 3 3 6 7 8
3 2 2 3 4 5 6 6 5 5 4 4 4 4 3 3 3 3 4 5 5 5 5 5 6 5 5 5 5 4 3 3 3 3 3 3 3 3
4 2 5 6 6 5 4 4 4 3 4 4 4 3 3 3 4 4 4 4 4 4 4 5 5 6 6 6 5 5 4 4 3 3 3 3 3 3
3 3 4 3 3 3 3 2 2 3 3 4 4 4 3 3 4 3 3 4 4 4 3 4 4 4 4 5 5 5 5 4 3 3 3 4 3 4
3 4 3 4 4 3 3 2 3 3 3 3 3 3 3 3 4 3 4 4 5 4 4 3 3 4 4 3 4 6 5 4 3 3 4 5 5 4
3 3 3 4 3 3 3 3 3 3 3 3 4 4 4 4 4 4 4 4 4 4 4 3 4 4 5 5 3 4 5 4 4 4 4 5 5 4
3 3 3 4 3 3 3 3 3 3 3 3 3 3 4 4 4 5 4 5 5 4 4 4 4 5 5 5 4 2 4 5 5 4 4 4 3 3
3 3 3 3 3 3 3 3 3 3 3 3 3 3 3 4 4 5 5 4 5 5 5 4 3 3 3 3 4 4 2 3 3 4 5 5 4 5
3 3 3 3 3 3 3 3 3 3 3 3 3 3 3 4 4 5 4 4 4 5 5 3 2 3 4 5 5 4 4 3 4 5 4 5 5 5
3 3 3 3 3 3 3 4 4 3 3 3 3 3 4 4 4 4 4 4 4 4 4 3 3 3 4 4 4 4 5 5 4 4 4 6 8 8
Wind_Direction
221 214 248 221 220 224 233 235 229 221 204 181 199 176 198 189 155 194 186 158 175 188 197 199 204 211 216 219 221 218 215 217 216 216 218 226 229 228
251 264 268 249 223 220 220 232 253 254 255 179 188 183 191 207 170 199 198 162 181 193 200 204 207 212 217 219 227 229 225 223 222 218 215 218 225 227
226 218 236 270 247 231 224 223 231 238 243 248 183 163 197 235 191 215 209 209 186 184 197 206 212 217 223 219 221 227 231 231 226 220 216 218 224 225
222 217 227 222 225 256 251 235 230 237 237 246 235 203 209 220 213 233 231 222 222 170 187 202 214 216 217 217 218 220 226 230 228 224 223 223 222 226
235 227 224 226 228 232 245 241 235 230 229 234 238 222 221 213 210 226 237 242 243 183 184 197 206 210 214 216 216 219 222 226 227 225 224 223 224 227
238 239 239 234 234 244 241 239 241 241 232 238 240 229 225 209 218 226 230 223 240 228 207 204 196 201 209 210 211 213 216 222 225 225 223 221 222 225
240 238 234 230 262 270 272 255 245 244 239 235 240 239 230 220 226 235 240 242 232 235 235 226 208 212 201 206 209 208 209 214 217 217 220 222 224 227
243 244 226 207 205 216 241 256 265 255 256 253 249 247 242 240 237 242 246 246 248 215 248 250 239 236 227 217 178 185 200 208 212 214 217 220 222 225
246 249 252 229 231 240 216 219 234 241 249 262 265 266 260 246 239 239 242 257 266 254 247 252 242 242 237 196 165 183 196 205 211 212 214 218 221 225
251 249 252 260 278 287 268 253 247 239 235 240 255 263 266 259 240 245 247 246 248 238 236 254 248 249 241 210 168 183 196 206 213 214 215 218 219 223
259 254 253 251 92 306 268 263 260 254 229 231 259 267 281 258 248 243 233 236 241 230 215 243 248 255 250 229 180 183 196 206 214 218 220 220 219 221
242 238 202 251 260 245 260 260 259 265 266 245 239 236 236 226 216 230 239 241 249 251 215 233 245 250 254 235 219 192 200 205 211 216 218 219 219 225
275 266 244 151 211 247 262 262 263 278 270 260 251 242 230 222 215 220 235 245 251 256 241 233 254 255 260 260 248 238 234 221 207 208 209 213 213 225
280 290 339 145 224 252 254 263 261 264 258 256 254 250 246 243 234 228 229 241 253 259 267 259 257 258 259 259 259 242 239 246 241 227 212 188 202 212
284 329 306 242 239 238 231 234 241 248 255 259 261 261 262 265 258 233 227 229 240 247 246 245 248 252 254 260 267 264 254 244 235 235 231 218 216 212
256 242 223 230 242 250 233 219 233 255 263 265 271 276 272 255 241 238 237 233 235 236 224 230 239 248 253 256 258 259 258 252 232 232 242 240 233 231
293 268 259 246 242 245 249 255 248 243 249 260 263 262 262 259 256 244 240 243 242 247 235 216 213 220 250 271 260 257 258 256 243 234 239 249 251 252
270 258 263 261 259 258 255 255 252 252 258 263 263 259 260 264 263 254 239 237 242 245 246 238 224 219 226 226 264 265 263 261 255 239 237 245 251 250
245 260 271 275 276 276 272 268 266 268 266 257 255 254 255 254 255 256 248 241 241 246 251 244 237 237 248 251 226 231 255 261 260 253 249 249 255 259
259 277 284 283 283 282 277 271 267 260 256 255 250 250 249 254 257 256 252 250 247 246 244 240 239 246 255 269 275 261 233 252 258 260 260 256 257 248
282 288 291 284 279 281 279 270 265 262 265 265 259 255 254 254 256 256 253 249 252 252 252 253 260 252 253 252 257 257 247 212 245 267 277 272 269 260
287 289 295 297 292 288 284 276 262 254 254 258 263 260 255 253 252 255 255 250 247 247 251 249 224 232 240 244 252 257 259 242 200 207 246 268 276 278
285 293 295 292 287 283 281 278 276 266 264 267 268 266 261 257 256 254 251 250 252 251 247 239 229 234 239 240 250 257 255 254 253 239 228 214 217 227